Other Public Products
Issued by NWS Grand Forks, ND

Home | Current Version | Previous Version | Graphics & Text | Print | Product List | Glossary On
Versions: 1 2 3 4 5 6 7 8 9 10 11 12 13 14 15 16 17 18 19 20 21 22 23 24 25 26 27 28 29 30 31 32 33 34 35 36 37 38 39 40 41 42 43 44 45 46 47 48 49 50
000
FPUS83 KFGF 261831
OPUFGF
PRAIRIE TO PINES WEATHER ROUNDUP
NATIONAL WEATHER SERVICE EASTERN NORTH DAKOTA/GRAND FORKS ND
100 PM CDT TUE JUL 26 2016

 **SATELLITE DATA USED TO AUGMENT SKY COVER AT AUTOMATED STATIONS**
 *****  WEATHER ACROSS EASTERN NORTH DAKOTA  *****

CITY           SKY/WX    TMP DP  RH WIND       PRES   REMARKS
GRAND FORKS    MOSUNNY   85  64  49 N6        29.97R
6HR MIN TEMP:  67; 6HR MAX TEMP:  85;

GRAND FORKS AF SUNNY     84  63  49 NE7       29.98R
GRAND CITY NWS   N/A     84 N/A N/A NE5         N/A
BUXTON           N/A     88  70  55 NE6         N/A  HX  92
DEVILS LAKE    CLOUDY    82  60  47 VRB3      30.02S
6HR MIN TEMP:  63; 6HR MAX TEMP:  82;

FARGO          SUNNY     80  68  66 CALM      29.95F
6HR MIN TEMP:  69; 6HR MAX TEMP:  80; 6HR PCP:  0.04;

WAHPETON ARPT  CLOUDY    79  64  61 W5        29.96F
$$

 *****  WEATHER ACROSS CENTRAL AND WESTERN NORTH DAKOTA  *****

CITY           SKY/WX    TMP DP  RH WIND       PRES   REMARKS
JAMESTOWN      CLOUDY    82  65  56 W3        29.98S
6HR MIN TEMP:  68; 6HR MAX TEMP:  84;

BISMARCK       LGT RAIN  73  68  84 N13       30.01F
6HR MIN TEMP:  69; 6HR MAX TEMP:  77; 6HR PCP: TRACE;

MINOT          CLOUDY    82  64  54 NW5       30.05S
6HR MIN TEMP:  65; 6HR MAX TEMP:  83;

MINOT AFB      CLOUDY    78  64  63 N8        30.04F
6HR MIN TEMP:  62; 6HR MAX TEMP:  78;

GARRISON         N/A     75  69  81 NW8       30.05F
6HR MIN TEMP:  66; 6HR MAX TEMP:  76;

WILLISTON      CLOUDY    78  61  55 N12       30.09R
6HR MIN TEMP:  64; 6HR MAX TEMP:  78;

DICKINSON      CLOUDY    70  65  84 N15       30.03R
6HR MIN TEMP:  62; 6HR MAX TEMP:  70; 6HR PCP:  0.16;

HETTINGER      CLOUDY    77  54  44 NE15      30.02R
6HR MIN TEMP:  65; 6HR MAX TEMP:  77; 6HR PCP: TRACE;

$$

 *****  OTHER OBSERVATIONS NORTHEAST NORTH DAKOTA  *****

CITY           SKY/WX    TMP DP  RH WIND       PRES   REMARKS
WALHALLA       FAIR      79  75  89 N7        30.01S
LANGDON        MOCLDY    81  68  65 N8        30.03S
CAVALIER       FAIR      81  68  65 NW7       29.99S
GRAFTON        FAIR      82  68  61 VRB5      30.00R
CANDO          FAIR      82  64  54 NW3       30.04F
FORT TOTTEN      N/A     84  66  54 NE2       29.95S
ROLLA            N/A     77  64  65 NE3       30.06F
RUGBY          NOT AVBL
 ***** THE ABOVE OBSERVATIONS ARE NON NWS ARE NOT QUALITY
        CONTROLLED AND MAY MIS-REPORT RAIN FOR SNOW...
$$

 *****  OTHER OBSERVATIONS SOUTHEAST NORTH DAKOTA *****

CITY           SKY/WX    TMP DP  RH WIND       PRES   REMARKS
COOPERSTOWN    NOT AVBL
VALLEY CITY    FAIR      82  73  74 N6        29.98F
OAKES            N/A    N/A N/A N/A MISG        N/A
GWINNER        FAIR      79  66  65 N7        29.96F
BUFFALO          N/A     84  63  49 NE9         N/A
WYNDMERE         N/A     81  66  61 W1          N/A
 ***** THE ABOVE OBSERVATIONS ARE NON NWS ARE NOT QUALITY
       CONTROLLED AND MAY MIS-REPORT RAIN FOR SNOW...
$$

  *****  WEATHER ACROSS NORTHERN MINNESOTA  *****

CITY           SKY/WX    TMP DP  RH WIND       PRES   REMARKS
FLAG ISLAND    MOSUNNY   77  54  44 NE3       29.99S
WARROAD        MOSUNNY   77  68  73 NE7       30.00S
ROSEAU         SUNNY     82  70  65 CALM      29.98F
HALLOCK        SUNNY     81  70  69 NW3       29.97S
THF RVR FALLS  SUNNY     81  64  56 NE9       29.98F
6HR MIN TEMP:  68; 6HR MAX TEMP:  82;

HALSTAD          N/A     81  66  60 CALM        N/A
FOSSTON        SUNNY     84  72  65 CALM      29.98F
BAUDETTE       SUNNY     81  67  62 NW7       29.98S
6HR MIN TEMP:  61; 6HR MAX TEMP:  82;

WASKISH        SUNNY     82  64  54 CALM      29.97F
CROOKSTON      SUNNY     84  63  48 N3        29.97S
$$
  *****  WEATHER ACROSS CENTRAL AND WEST MINNESOTA  *****

CITY           SKY/WX    TMP DP  RH WIND       PRES   REMARKS
BEMIDJI        CLOUDY    81  70  69 S6        29.99R
PARK RAPIDS    CLOUDY    76  65  68 SW7       30.00S
6HR MIN TEMP:  69; 6HR MAX TEMP:  79; 6HR PCP:  0.01;

WADENA         CLOUDY    75  66  73 S3        29.99F
DETROIT LAKES  MOSUNNY   75  64  69 SW3       29.99F
MOORHEAD       MOSUNNY   79  66  65 CALM      29.95F
FERGUS FALLS   CLOUDY    81  66  61 MISG      29.97F
ELBOW LAKE     FAIR      83  71  67 SW6       29.98F
MORRIS MN      CLOUDY    90  72  55 SW8       29.96F HX  96
STAPLES        MOSUNNY   79  64  61 W3        30.00F
WHEATON        CLOUDY    86  73  66 SW5       29.97F HX  93
$$
  *****  WEATHER ELSEWHERE ACROSS MINNESOTA  *****

CITY           SKY/WX    TMP DP  RH WIND       PRES   REMARKS
DULUTH         CLOUDY    80  65  59 W14       29.97R
6HR MIN TEMP:  70; 6HR MAX TEMP:  81; 6HR PCP:  0.02;

INTRNTL FALLS  MOSUNNY   83  64  52 W6        29.96F
6HR MIN TEMP:  64; 6HR MAX TEMP:  83;

ELY            CLOUDY    79  64  61 NW3       29.96F
CLOQUET        CLOUDY    81  63  54 SW10      29.98S
BRAINERD       CLOUDY    78  66  66 SW9       30.01R
6HR MIN TEMP:  70; 6HR MAX TEMP:  78;

HIBBING        MOSUNNY   78  67  68 CALM      29.96S
6HR MIN TEMP:  63; 6HR MAX TEMP:  79;

ALEXANDRIA     CLOUDY    85  69  58 SW15      30.02F
6HR MIN TEMP:  70; 6HR MAX TEMP:  85;

SAINT CLOUD    MOSUNNY   83  70  64 SW9       30.00S
6HR MIN TEMP:  68; 6HR MAX TEMP:  83;

MINNEAPOLIS    MOSUNNY   88  63  43 SW15G21   30.03F
6HR MIN TEMP:  72; 6HR MAX TEMP:  88;

$$

  *****  WEATHER ACROSS SOUTH DAKOTA  *****

CITY           SKY/WX    TMP DP  RH WIND       PRES   REMARKS
SIOUX FALLS    MOSUNNY   84  63  49 S12       30.05F
6HR MIN TEMP:  70; 6HR MAX TEMP:  84;

BROOKINGS      SUNNY     84  65  52 SW9       30.04F
WATERTOWN      CLOUDY    84  68  58 SW8       30.03F
6HR MIN TEMP:  68; 6HR MAX TEMP:  85;

HURON          PTSUNNY   89  66  46 S16G22    29.96F THUNDER HX  91
6HR MIN TEMP:  66; 6HR MAX TEMP:  89;

SISSETON         N/A     82  58  43 W14G24    29.93F
ABERDEEN       PTSUNNY   70  62  76 SE16G23   29.98F
6HR MIN TEMP:  65; 6HR MAX TEMP:  71; 6HR PCP:  0.87;

MITCHELL       SUNNY     89  63  41 S10       30.00F HX  90
PIERRE         CLOUDY    85  63  47 N12       29.96F
6HR MIN TEMP:  72; 6HR MAX TEMP:  87;

MOBRIDGE       CLOUDY    81  66  60 N20G38    29.96S
RAPID CITY     MOSUNNY   81  56  42 SE8       30.05S
6HR MIN TEMP:  65; 6HR MAX TEMP:  81; 6HR PCP:  0.01;

$$

  *****  SOME WEATHER IN NEARBY STATES *****

CITY           SKY/WX    TMP DP  RH WIND       PRES   REMARKS
GLASGOW MT     PTSUNNY   76  62  62 NE14      30.08R
6HR MIN TEMP:  64; 6HR MAX TEMP:  80;

GREAT FALLS MT SUNNY     80  49  33 E7        30.10S
6HR MIN TEMP:  53; 6HR MAX TEMP:  81;

CHEYENNE WY    PTSUNNY   87  37  17 NE7       30.20S
6HR MIN TEMP:  55; 6HR MAX TEMP:  91;

SCOTTSBLUFF NE MOSUNNY   87  54  32 N6        30.05F
6HR MIN TEMP:  63; 6HR MAX TEMP:  89;

OMAHA NE       PTSUNNY   85  62  46 E5        30.07F
6HR MIN TEMP:  67; 6HR MAX TEMP:  85;

DES MOINES IA  MOSUNNY   85  64  49 E7        30.07F
6HR MIN TEMP:  69; 6HR MAX TEMP:  86;

DAVENPORT IA   SUNNY     85  64  49 E5        30.07F
6HR MIN TEMP:  67; 6HR MAX TEMP:  85;

CHICAGO IL     PTSUNNY   84  61  45 NE5       30.04F
6HR MIN TEMP:  74; 6HR MAX TEMP:  86;

EAU CLAIRE WI  SUNNY     87  67  51 SW12      30.02F HX  90
6HR MIN TEMP:  67; 6HR MAX TEMP:  87;

LA CROSSE WI   SUNNY     87  66  49 CALM      30.05F
6HR MIN TEMP:  67; 6HR MAX TEMP:  88;

$$

  *****  SOME NATIONAL WEATHER *****

CITY           SKY/WX    TMP DP  RH WIND       PRES   REMARKS
LA GUARDIA NY  PTSUNNY   89  64  43 NW10G24   29.86F HX  90
6HR MIN TEMP:  77; 6HR MAX TEMP:  89;

RALEIGH NC     PTSUNNY   94  77  57 VRB7      29.99F HX 108        C1F1C2F2C3F3C4F4C5F5C6F6C7F7C8F8C9F9CaFaCbFbCcFcCdFdCe!


USA.gov is the U.S. government's official web portal to all federal, state and local government web resources and services.